Sparrevohn, AK

11:11 AM AKDT on September 25, 2017 (GMT -0800)
Sparrevohn LRRS

Weather History for PASV - July, 2013

Change the Weather History Date:

Wednesday, July 3, 2013

  Actual Average Record
Temperature  
Mean Temperature 44 °F -  
Max Temperature 48 °F 61 °F 73 °F (1997)
Min Temperature 41 °F 43 °F 40 °F (2012)
Degree Days  
Heating Degree Days 20    
Moisture  
Dew Point 43 °F    
Average Humidity 92    
Maximum Humidity 100    
Minimum Humidity 84    
Precipitation  
Precipitation 0.23 in - - ()
Sea Level Pressure  
Sea Level Pressure 29.91 in    
Wind  
Wind Speed 11 mph (South)    
Max Wind Speed 18 mph    
Max Gust Speed 31 mph    
Visibility 10 miles    
Events Rain    
Averages and records for this station are not official NWS values.
T = Trace of Precipitation, MM = Missing Value Source: NWS Daily Summary

Daily Weather History Graph

Daily Weather History Graph

Search for Another Location

Airport or City:

Trip Planner

Search our weather history database for the weather conditions in past years. The results will help you decide how hot, cold, wet, or windy it might be!

Date:

Astronomy

Jul. 03, 2013 Rise Set
Actual Time 4:54 AM AKDT 11:57 PM AKDT
Civil Twilight 2:58 AM AKDT 2:10 AM AKDT
Nautical Twilight Sun does not set Sun does not set
Astronomical Twilight Sun does not set Sun does not set
Moon 2:25 AM AKDT (7/3) 7:42 PM AKDT (7/3)
Length of Visible Light 23h 11m
Length of Day
19h 03m
Waning Crescent, 17% of the Moon is Illuminated
Jul 3
Waning Crescent
Jul 7
New
Jul 15
First Quarter
Jul 22
Full
Jul 29
Last Quarter

Hourly Weather History & Observations

Time (AKDT) Temp. Windchill Dew Point Humidity Pressure Visibility Wind Dir Wind Speed Gust Speed Precip Events Conditions
12:52 AM 44.6 °F 38.1 °F 41.0 °F 87% 29.84 in 10.0 mi South 13.8 mph 23.0 mph N/A Rain Light Rain
12:55 AM 43.7 °F 37.3 °F 41.0 °F 90% 29.84 in 10.0 mi South 12.7 mph 23.0 mph N/A Rain Light Rain Showers
1:07 AM 42.8 °F 35.8 °F 41.0 °F 93% 29.84 in 10.0 mi South 13.8 mph 26.5 mph N/A   Overcast
1:22 AM 42.8 °F 34.5 °F 41.0 °F 93% 29.84 in 10.0 mi SSW 18.4 mph 25.3 mph N/A Rain Light Rain Showers
1:52 AM 42.8 °F 37.0 °F 41.0 °F 93% 29.86 in 10.0 mi SSW 10.4 mph 20.7 mph N/A Rain Light Rain Showers
1:55 AM 42.3 °F 34.8 °F 40.8 °F 95% 29.86 in 10.0 mi SSW 15.0 mph 24.2 mph N/A Rain Light Rain
2:22 AM 42.8 °F 35.8 °F 41.0 °F 93% 29.86 in 10.0 mi SSW 13.8 mph 25.3 mph N/A   Light Drizzle
2:37 AM 42.8 °F 36.6 °F 41.0 °F 93% 29.87 in 10.0 mi South 11.5 mph 23.0 mph N/A   Overcast
2:55 AM 41.9 °F 35.4 °F 41.2 °F 97% 29.87 in 10.0 mi South 11.5 mph 21.9 mph N/A   Overcast
3:07 AM 42.8 °F 34.8 °F 41.0 °F 93% 29.87 in 10.0 mi SSW 17.3 mph 24.2 mph N/A Rain Light Rain Showers
3:22 AM 42.8 °F 35.1 °F 41.0 °F 93% 29.88 in 10.0 mi South 16.1 mph 31.1 mph N/A   Overcast
3:37 AM 42.8 °F 35.8 °F 41.0 °F 93% 29.88 in 8.0 mi South 13.8 mph 20.7 mph N/A Rain Light Rain Showers
3:55 AM 41.9 °F 35.0 °F 41.2 °F 97% 29.88 in 9.0 mi South 12.7 mph 21.9 mph 0.02 in Rain Light Rain Showers
4:07 AM 42.8 °F 36.6 °F 41.0 °F 93% 29.88 in 10.0 mi South 11.5 mph 19.6 mph N/A Rain Light Rain
4:37 AM 42.8 °F 36.2 °F 41.0 °F 93% 29.88 in 10.0 mi South 12.7 mph 23.0 mph N/A Rain Light Rain
4:52 AM 42.8 °F 37.0 °F 41.0 °F 93% 29.88 in 10.0 mi SSW 10.4 mph 23.0 mph N/A Rain Light Rain
4:55 AM 42.3 °F 35.5 °F 41.0 °F 95% 29.88 in 10.0 mi South 12.7 mph 23.0 mph 0.00 in Rain Light Rain
5:55 AM 42.3 °F 35.5 °F 41.0 °F 95% 29.89 in 10.0 mi South 12.7 mph 21.9 mph 0.02 in Rain Light Rain
6:55 AM 42.4 °F 37.0 °F 40.8 °F 94% 29.90 in 10.0 mi South 9.2 mph 23.0 mph N/A Rain Light Rain Showers
7:52 AM 42.8 °F 36.2 °F 41.0 °F 93% 29.91 in 10.0 mi South 12.7 mph 19.6 mph N/A   Overcast
7:55 AM 42.3 °F 35.1 °F 40.8 °F 95% 29.91 in 10.0 mi South 13.8 mph 19.6 mph N/A Rain Light Rain Showers
8:55 AM 42.4 °F 37.0 °F 41.2 °F 95% 29.93 in 10.0 mi South 9.2 mph 18.4 mph N/A Rain Light Rain
9:52 AM 42.8 °F 38.6 °F 41.0 °F 93% 29.94 in 10.0 mi SSE 6.9 mph - N/A Rain Light Rain
9:55 AM 43.0 °F 38.8 °F 41.7 °F 95% 29.94 in 10.0 mi Variable 6.9 mph - 0.00 in Rain Light Rain
10:52 AM 42.8 °F 38.6 °F 42.8 °F 100% 29.94 in 10.0 mi South 6.9 mph - N/A   Overcast
10:55 AM 43.3 °F 39.2 °F 41.7 °F 94% 29.94 in 10.0 mi South 6.9 mph - N/A   Overcast
11:37 AM 44.6 °F 38.8 °F 42.8 °F 93% 29.94 in 5.0 mi South 11.5 mph 17.3 mph N/A   Light Drizzle
11:52 AM 44.6 °F 40.2 °F 42.8 °F 93% 29.94 in 10.0 mi South 8.1 mph 16.1 mph N/A   Light Drizzle
11:55 AM 44.1 °F 40.1 °F 42.6 °F 95% 29.94 in 10.0 mi SSE 6.9 mph 16.1 mph N/A Rain Light Rain Showers
12:07 PM 44.6 °F 39.7 °F 42.8 °F 93% 29.94 in 10.0 mi SSE 9.2 mph 18.4 mph N/A   Overcast
12:22 PM 44.6 °F 40.2 °F 42.8 °F 93% 29.94 in 10.0 mi South 8.1 mph 18.4 mph N/A Rain Light Rain Showers
12:37 PM 46.4 °F 43.5 °F 42.8 °F 87% 29.94 in 10.0 mi South 5.8 mph 18.4 mph N/A   Overcast
12:55 PM 45.7 °F 40.2 °F 43.2 °F 91% 29.95 in 10.0 mi SSW 11.5 mph 18.4 mph N/A   Overcast
1:07 PM 46.4 °F 42.4 °F 42.8 °F 87% 29.95 in 10.0 mi South 8.1 mph 16.1 mph N/A Rain Light Rain Showers
1:22 PM 46.4 °F 41.5 °F 42.8 °F 87% 29.95 in 10.0 mi SSW 10.4 mph 15.0 mph N/A Rain Light Rain Showers
1:53 PM 46.4 °F 41.9 °F 44.6 °F 93% 29.94 in 10.0 mi SSW 9.2 mph - N/A Rain Light Rain
1:55 PM 46.9 °F - 43.7 °F 88% 29.94 in 10.0 mi South 8.1 mph - N/A Rain Light Rain
2:23 PM 48.2 °F - 44.6 °F 87% 29.94 in 10.0 mi SW 6.9 mph - N/A   Mostly Cloudy
2:38 PM 48.2 °F - 44.6 °F 87% 29.94 in 10.0 mi South 9.2 mph 17.3 mph N/A Rain Light Rain Showers
2:53 PM 48.2 °F - 44.6 °F 87% 29.94 in 10.0 mi Variable 6.9 mph - N/A Rain Light Rain Showers
2:55 PM 48.6 °F - 44.1 °F 84% 29.94 in 10.0 mi South 8.1 mph 15.0 mph N/A Rain Light Rain Showers
3:55 PM 48.4 °F - 44.2 °F 86% 29.94 in 10.0 mi South 5.8 mph 13.8 mph 0.00 in Rain Light Rain Showers
4:55 PM 47.7 °F - 45.0 °F 90% 29.93 in 10.0 mi South 8.1 mph 15.0 mph 0.02 in Rain Light Rain
5:38 PM 48.2 °F - 46.4 °F 93% 29.91 in 10.0 mi Variable 5.8 mph - N/A Rain Light Rain
5:53 PM 48.2 °F - 46.4 °F 93% 29.91 in 10.0 mi SSW 6.9 mph - N/A Rain Light Rain
5:55 PM 47.5 °F - 45.9 °F 94% 29.91 in 10.0 mi SSW 8.1 mph - 0.03 in Rain Light Rain
6:23 PM 46.4 °F 42.4 °F 44.6 °F 93% 29.90 in 10.0 mi SSW 8.1 mph - N/A Rain Light Rain
6:38 PM 46.4 °F 42.4 °F 44.6 °F 93% 29.90 in 7.0 mi SSW 8.1 mph - N/A Rain Rain
6:53 PM 46.4 °F 42.4 °F 44.6 °F 93% 29.90 in 8.0 mi SSW 8.1 mph 15.0 mph N/A Rain Rain
6:55 PM 46.8 °F - 45.3 °F 95% 29.90 in 9.0 mi SSW 6.9 mph 15.0 mph 0.06 in Rain Rain
7:23 PM 46.4 °F 41.5 °F 44.6 °F 93% 29.90 in 10.0 mi SSW 10.4 mph 17.3 mph N/A Rain Light Rain
7:53 PM 46.4 °F 44.3 °F 44.6 °F 93% 29.90 in 10.0 mi Variable 4.6 mph - N/A Rain Light Rain
7:55 PM 46.9 °F - 44.8 °F 92% 29.90 in 10.0 mi Variable 4.6 mph - 0.04 in Rain Light Rain
8:23 PM 46.4 °F 41.5 °F 44.6 °F 93% 29.90 in 10.0 mi South 10.4 mph 17.3 mph N/A Rain Light Rain
8:38 PM 46.4 °F 41.9 °F 42.8 °F 87% 29.90 in 10.0 mi South 9.2 mph 17.3 mph N/A Rain Light Rain
8:55 PM 46.4 °F 42.4 °F 43.2 °F 88% 29.90 in 10.0 mi SSE 8.1 mph 16.1 mph 0.00 in Rain Light Rain
9:55 PM 46.0 °F 43.1 °F 42.4 °F 87% 29.90 in 10.0 mi SSE 5.8 mph - 0.02 in Rain Light Rain
10:55 PM 45.7 °F 41.5 °F 41.7 °F 86% 29.90 in 10.0 mi SSE 8.1 mph - 0.00 in Rain Light Rain
11:55 PM 45.1 °F 42.8 °F 42.1 °F 89% 29.90 in 10.0 mi SSE 4.6 mph - 0.02 in Rain Light Rain